Satellite-Ground Cal/Val Site Overpasses Predictions

Prediction of Satellite NPP Overpassing Cal/Val Site: Antarctic Dome C

Ground Cal/Val Site Location: Latitude: -75.10, Longitude: 123.35; Satellite-Ground Site NADIR distance within 100 km.

Table of predicted overpasses for the next 14.0 days since TLE Epoch: 6/10/2013
Interval Starting Time Ending Time Minimum Distance Time Minimum Distance (km)
1 06/11/2013 14:54:34 06/11/2013 14:55:02 06/11/2013 14:54:48 25.41
2 06/12/2013 14:35:51 06/12/2013 14:36:08 06/12/2013 14:35:59 81.80
3 06/13/2013 07:37:24 06/13/2013 07:37:51 06/13/2013 07:37:38 34.98
4 06/14/2013 07:18:39 06/14/2013 07:18:58 06/14/2013 07:18:48 75.16
5 06/16/2013 15:00:53 06/16/2013 15:01:16 06/16/2013 15:01:05 62.17
6 06/17/2013 14:42:02 06/17/2013 14:42:27 06/17/2013 14:42:14 47.20
7 06/18/2013 07:43:43 06/18/2013 07:44:04 06/18/2013 07:43:53 69.74
8 06/19/2013 07:24:51 06/19/2013 07:25:18 06/19/2013 07:25:04 38.29
9 06/21/2013 15:07:19 06/21/2013 15:07:21 06/21/2013 15:07:20 99.50
10 06/22/2013 14:48:16 06/22/2013 14:48:45 06/22/2013 14:48
